Weather History for KPIR - February, 2014

Change the Weather History Date:

Monday, February 17, 2014

  Actual Average Record
Temperature  
Mean Temperature 40 °F 25 °F  
Max Temperature 51 °F 35 °F 63 °F (2002)
Min Temperature 29 °F 14 °F -23 °F (1956)
Degree Days  
Heating Degree Days 25 40  
Month to date heating degree days 889 717  
Since 1 July heating degree days 5486 5077  
Cooling Degree Days 0 0  
Month to date cooling degree days 0 0  
Year to date cooling degree days 0 0  
Moisture  
Dew Point 26 °F    
Average Humidity 61    
Maximum Humidity 92    
Minimum Humidity 29    
Precipitation  
Precipitation 0.04 in 0.03 in 0.88 in (1991)
Month to date precipitation 0.26 0.30  
Year to date precipitation 0.40 0.72  
Snow  
Snow 0.40 in 0.20 in 9.20 in (1991)
Month to date snowfall 3.0 3.1  
Since 1 July snowfall 20.7 19.0  
Snow Depth 1.00 in    
Sea Level Pressure  
Sea Level Pressure 29.76 in    
Wind  
Wind Speed 14 mph (West)    
Max Wind Speed 24 mph    
Max Gust Speed 31 mph    
Visibility 9 miles    
Events Snow    
T = Trace of Precipitation, MM = Missing Value Source: NWS Daily Summary

Daily Weather History Graph

Daily Weather History Graph

Search for Another Location

Airport or City:

Trip Planner

Search our weather history database for the weather conditions in past years. The results will help you decide how hot, cold, wet, or windy it might be!

Date:

Astronomy

Feb. 17, 2014 Rise Set
Actual Time 7:37 AM CST 6:13 PM CST
Civil Twilight 7:08 AM CST 6:42 PM CST
Nautical Twilight 6:34 AM CST 7:16 PM CST
Astronomical Twilight 6:00 AM CST 7:50 PM CST
Moon 9:18 PM CST (2/17) 8:31 AM CST (2/17)
Length of Visible Light 11h 34m
Length of Day
10h 35m
Waning Gibbous, 93% of the Moon is Illuminated
Feb 17
Waning Gibbous
Feb 22
Last Quarter
Mar 1
New
Mar 8
First Quarter
Mar 16
Full

Hourly Weather History & Observations

Time (CST) Temp. Windchill Dew Point Humidity Pressure Visibility Wind Dir Wind Speed Gust Speed Precip Events Conditions
12:07 AM 30.9 °F 18.4 °F 28.9 °F 92% 29.70 in 0.8 mi NW 20.7 mph 27.6 mph 0.01 in Snow Light Snow
12:14 AM 30.9 °F 18.7 °F 28.9 °F 92% 29.71 in 1.0 mi NW 19.6 mph - 0.01 in Snow Light Snow
12:26 AM 32.0 °F 20.5 °F 30.9 °F 96% 29.71 in 2.0 mi NW 18.4 mph 28.8 mph 0.01 in Snow Light Snow
12:31 AM 32.0 °F 20.1 °F 30.9 °F 96% 29.70 in 4.0 mi NW 19.6 mph - 0.01 in Snow Light Snow
12:53 AM 33.1 °F 23.4 °F 30.9 °F 92% 29.76 in 10.0 mi NNW 13.8 mph - 0.01 in   Overcast
1:15 AM 33.1 °F 21.9 °F 30.0 °F 89% 29.74 in 10.0 mi NW 18.4 mph - N/A   Overcast
1:30 AM 33.1 °F 23.0 °F 30.0 °F 89% 29.74 in 10.0 mi WNW 15.0 mph - N/A   Overcast
1:53 AM 33.1 °F 25.5 °F 30.9 °F 92% 29.78 in 10.0 mi West 9.2 mph - N/A   Mostly Cloudy
2:53 AM 33.1 °F 22.2 °F 30.0 °F 89% 29.79 in 10.0 mi West 17.3 mph - N/A   Partly Cloudy
3:53 AM 34.0 °F 22.4 °F 28.9 °F 82% 29.79 in 10.0 mi WNW 20.7 mph 27.6 mph N/A   Partly Cloudy
4:53 AM 34.0 °F 22.1 °F 27.0 °F 75% 29.82 in 10.0 mi WNW 21.9 mph - N/A   Partly Cloudy
5:53 AM 32.0 °F 20.5 °F 25.0 °F 75% 29.84 in 10.0 mi West 18.4 mph - N/A   Clear
6:53 AM 32.0 °F 20.5 °F 24.1 °F 73% 29.84 in 10.0 mi West 18.4 mph - N/A   Clear
7:53 AM 30.9 °F 18.4 °F 21.9 °F 69% 29.87 in 10.0 mi West 20.7 mph - N/A   Clear
8:53 AM 34.0 °F 22.1 °F 23.0 °F 64% 29.88 in 10.0 mi WNW 21.9 mph 29.9 mph N/A   Clear
9:53 AM 37.0 °F 26.7 °F 24.1 °F 59% 29.91 in 10.0 mi WNW 19.6 mph 28.8 mph N/A   Clear
10:53 AM 39.9 °F 30.8 °F 25.0 °F 55% 29.90 in 10.0 mi WNW 18.4 mph - N/A   Clear
11:53 AM 42.1 °F 34.2 °F 26.1 °F 53% 29.90 in 10.0 mi West 16.1 mph - N/A   Clear
12:53 PM 45.0 °F 37.9 °F 25.0 °F 46% 29.86 in 10.0 mi West 16.1 mph - N/A   Clear
1:53 PM 46.9 °F - 25.0 °F 42% 29.83 in 10.0 mi West 13.8 mph - N/A   Clear
2:53 PM 48.0 °F - 23.0 °F 37% 29.79 in 10.0 mi West 10.4 mph - N/A   Clear
3:53 PM 50.0 °F - 19.0 °F 29% 29.77 in 10.0 mi SW 11.5 mph - N/A   Clear
4:53 PM 50.0 °F - 19.9 °F 31% 29.73 in 10.0 mi South 9.2 mph - N/A   Clear
5:53 PM 44.1 °F 38.1 °F 23.0 °F 43% 29.71 in 10.0 mi South 11.5 mph - N/A   Clear
6:53 PM 39.9 °F 35.1 °F 21.9 °F 49% 29.68 in 10.0 mi SSE 6.9 mph - N/A   Clear
7:53 PM 37.9 °F 32.1 °F 21.9 °F 53% 29.68 in 10.0 mi SSE 8.1 mph - N/A   Clear
8:53 PM 37.0 °F 31.0 °F 21.9 °F 54% 29.65 in 10.0 mi SSW 8.1 mph - N/A   Clear
9:53 PM 39.0 °F 33.4 °F 23.0 °F 53% 29.63 in 10.0 mi SW 8.1 mph - N/A   Clear
10:53 PM 37.9 °F 30.9 °F 24.1 °F 57% 29.61 in 10.0 mi SW 10.4 mph - N/A   Clear
11:53 PM 36.0 °F 28.5 °F 24.1 °F 62% 29.60 in 10.0 mi WSW 10.4 mph - N/A   Clear